WR9G Weather Reports


time (UTC)temp
F
wind
direction
speed
knots
gust
knots
rain 1hr
in
rain 24hr
in
rain mn
in
humidity
%
barometer
mb
20260906090832 74 18 0.0 2.6 0.00 0.00 0.00 94 1012.7
20260906085833 74 28 0.0 4.3 0.00 0.00 0.00 94 1012.7
20260906084832 74 13 0.0 6.1 0.00 0.00 0.00 94 1012.6
20260906083832 74 13 0.0 0.0 0.00 0.00 0.00 94 1012.6
20260906082831 74 13 0.0 0.0 0.00 0.00 0.00 93 1012.6
20260906081831 74 18 0.0 0.0 0.00 0.00 0.00 93 1012.6
20260906080831 74 18 0.0 0.0 0.00 0.00 0.00 93 1012.4
20260906074831 75 18 0.0 0.0 0.00 0.00 0.00 92 1012.4
20260906072829 75 18 0.0 0.0 0.00 0.00 0.00 90 1012.4
20260906071829 75 18 0.0 0.0 0.00 0.00 0.00 89 1012.6
20260906065828 76 18 0.0 0.0 0.00 0.00 0.00 87 1012.8
20260906064828 76 18 0.0 0.0 0.00 0.00 0.00 86 1012.9
20260906063828 76 18 0.0 0.0 0.00 0.00 0.00 85 1012.9
20260906062828 77 18 0.0 0.0 0.00 0.00 0.00 84 1012.9
20260906061827 77 18 0.0 0.0 0.00 0.00 0.00 84 1012.9
20260906060827 76 116 0.0 0.0 0.00 0.00 0.00 84 1012.9
20260906055826 77 116 0.0 0.0 0.00 0.00 0.00 83 1012.9
20260906053826 77 116 0.0 0.0 0.00 0.00 0.00 84 1012.8
20260906052827 77 116 0.0 0.0 0.00 0.00 0.00 84 1012.8
20260906051825 77 116 0.0 0.0 0.00 0.00 0.00 84 1012.7
20260906045826 78 116 0.0 0.0 0.00 0.00 0.00 85 1012.3
20260906044824 78 116 0.0 0.0 0.00 0.00 0.00 84 1012.3
20260906042824 78 18 0.0 0.0 0.00 0.00 0.00 85 1012.2
20260906041823 79 18 0.0 0.0 0.00 0.00 0.00 86 1011.9
20260906040823 79 18 0.0 0.0 0.00 0.00 0.00 86 1011.9
20260906035822 79 18 0.0 0.0 0.00 0.00 0.00 85 1011.9
20260906033822 79 18 0.0 0.0 0.00 0.00 0.00 84 1011.7
20260906032823 80 18 0.0 0.0 0.00 0.00 0.00 84 1011.7
20260906031822 80 43 0.0 0.0 0.00 0.00 0.00 83 1011.7
20260906030821 80 28 0.0 0.0 0.00 0.00 0.00 83 1011.7
20260906025851 80 27 0.0 0.0 0.00 0.00 0.00 82 1011.7
20260906024851 80 27 0.0 0.0 0.00 0.00 0.00 81 1011.7
20260906023820 79 27 0.0 0.0 0.00 0.00 0.00 81 1011.4
20260906021850 80 18 0.0 0.0 0.00 0.00 0.00 86 1011.1
20260906020819 80 18 0.0 0.0 0.00 0.00 0.00 84 1011.2
20260906015820 80 18 0.0 0.0 0.00 0.00 0.00 84 1011.2
20260906014819 81 18 0.0 0.0 0.00 0.00 0.00 84 1010.9
20260906013818 81 18 0.0 0.0 0.00 0.00 0.00 83 1010.6
20260906012848 82 18 0.0 0.0 0.00 0.00 0.00 81 1010.6
20260906011849 82 18 0.0 0.0 0.00 0.00 0.00 80 1010.5
20260906010847 82 22 0.0 0.0 0.00 0.00 0.00 78 1010.5
20260906004847 83 22 0.0 0.0 0.00 0.00 0.00 78 1010.1
20260906003817 85 22 0.0 0.0 0.00 0.00 0.00 76 1009.9
20260906002846 86 22 0.0 0.0 0.00 0.00 0.00 73 1010.0
20260906001846 87 22 0.0 0.0 0.00 0.00 0.00 69 1010.1
20260906000846 88 22 0.0 0.0 0.00 0.00 0.00 65 1010.2
20260905235845 89 22 0.0 0.0 0.00 0.00 0.00 58 1010.2
20260905233844 91 22 0.0 0.0 0.00 0.00 0.00 56 1010.7
20260905232844 92 8 0.0 0.0 0.00 0.00 0.00 52 1010.7
20260905225843 93 348 0.0 0.0 0.00 0.00 0.00 47 1010.3
20260905224843 93 356 0.0 0.0 0.00 0.00 0.00 47 1010.1
20260905223843 94 342 0.0 0.0 0.00 0.00 0.00 47 1010.1
20260905222843 95 322 0.0 0.0 0.00 0.00 0.00 46 1010.2
20260905221842 95 324 0.0 3.5 0.00 0.00 0.00 43 1010.2
20260905220842 96 334 0.0 3.5 0.00 0.00 0.00 43 1010.1
20260905215842 95 332 0.0 0.0 0.00 0.00 0.00 44 1010.1
20260905214841 95 336 0.0 4.3 0.00 0.00 0.00 46 1010.2
20260905213841 95 338 0.0 5.2 0.00 0.00 0.00 44 1010.2
20260905212842 95 349 0.0 0.0 0.00 0.00 0.00 45 1010.2
20260905211841 95 8 0.0 2.6 0.00 0.00 0.00 44 1010.3
20260905210840 95 24 0.0 7.8 0.00 0.00 0.00 43 1010.7
20260905205840 96 307 0.0 7.0 0.00 0.00 0.00 49 1010.7
20260905204839 96 274 0.0 6.1 0.00 0.00 0.00 45 1010.8
20260905203839 97 282 0.0 7.0 0.00 0.00 0.00 42 1010.8
20260905202840 96 282 0.0 5.2 0.00 0.00 0.00 44 1010.8
20260905201838 96 315 0.0 3.5 0.00 0.00 0.00 43 1011.0
20260905195838 95 344 0.0 6.1 0.00 0.00 0.00 42 1011.1
20260905194838 96 295 0.0 4.3 0.00 0.00 0.00 43 1011.3
20260905192837 96 320 0.0 8.7 0.00 0.00 0.00 42 1011.5
20260905191836 96 294 0.0 0.0 0.00 0.00 0.00 42 1011.7
20260905190836 96 225 0.0 0.0 0.00 0.00 0.00 40 1011.9
20260905185836 95 211 0.0 0.0 0.00 0.00 0.00 43 1011.9
20260905184836 95 218 0.0 0.0 0.00 0.00 0.00 39 1012.2
20260905183835 95 227 0.0 0.0 0.00 0.00 0.00 42 1012.4
20260905182835 94 213 0.0 0.9 0.00 0.00 0.00 42 1012.3
20260905181835 94 276 0.0 3.5 0.00 0.00 0.00 42 1012.7
20260905180835 94 194 0.0 0.9 0.00 0.00 0.00 41 1012.8
20260905175834 94 201 0.0 1.7 0.00 0.00 0.00 41 1012.8
20260905174834 93 225 0.0 1.7 0.00 0.00 0.00 42 1012.8
20260905173834 93 210 0.0 5.2 0.00 0.00 0.00 43 1013.1
20260905172833 93 228 0.0 0.0 0.00 0.00 0.00 43 1013.1
20260905171834 92 223 0.0 0.0 0.00 0.00 0.00 45 1013.3
20260905170833 92 116 0.0 0.9 0.00 0.00 0.00 44 1013.3
20260905165833 91 170 0.0 5.2 0.00 0.00 0.00 43 1013.3
20260905164833 91 202 0.0 0.0 0.00 0.00 0.00 49 1013.5
20260905163832 90 141 0.0 0.0 0.00 0.00 0.00 47 1013.8
20260905161831 89 122 0.0 4.3 0.00 0.00 0.00 50 1013.8
20260905160831 88 228 0.0 8.7 0.00 0.00 0.00 48 1014.0
20260905155831 87 186 5.2 6.1 0.00 0.00 0.00 49 1014.0
20260905154830 87 215 0.0 8.7 0.00 0.00 0.00 53 1014.0
20260905153831 86 176 0.0 5.2 0.00 0.00 0.00 49 1013.9
20260905152830 86 206 0.0 6.1 0.00 0.00 0.00 50 1013.9
20260905150830 85 148 0.0 7.8 0.00 0.00 0.00 53 1014.2
20260905145829 85 154 0.0 2.6 0.00 0.00 0.00 54 1014.2
20260905144829 84 197 0.0 3.5 0.00 0.00 0.00 55 1014.4
20260905143828 82 192 0.0 0.0 0.00 0.00 0.00 60 1014.3
20260905142828 81 192 0.0 5.2 0.00 0.00 0.00 59 1014.3
20260905140827 79 193 0.0 5.2 0.00 0.00 0.00 64 1014.7
20260905135827 79 192 0.0 1.7 0.00 0.00 0.00 65 1014.7
20260905134827 78 118 0.0 3.5 0.00 0.00 0.00 67 1014.7
20260905133826 77 191 0.0 3.5 0.00 0.00 0.00 70 1015.1
20260905132826 77 166 0.0 3.5 0.00 0.00 0.00 70 1015.1
20260905131826 77 172 0.0 5.2 0.00 0.00 0.00 71 1015.2
20260905130825 76 175 0.9 0.9 0.00 0.00 0.00 74 1015.2
20260905125825 76 133 0.0 2.6 0.00 0.00 0.00 76 1015.2
20260905124825 76 176 0.9 3.5 0.00 0.00 0.00 77 1015.3
20260905123824 76 139 0.0 3.5 0.00 0.00 0.00 80 1015.3
20260905122824 76 265 0.0 3.5 0.00 0.00 0.00 82 1015.3
20260905121824 76 270 0.0 0.9 0.00 0.00 0.00 87 1015.0
20260905115824 75 72 0.0 7.8 0.00 0.00 0.00 91 1014.8
20260905114823 75 184 0.0 0.0 0.00 0.00 0.00 92 1013.6
20260905113823 75 184 0.0 0.0 0.00 0.00 0.00 92 1013.3
20260905112822 75 184 0.0 0.0 0.00 0.00 0.00 91 1013.3
20260905111822 75 177 0.0 0.0 0.00 0.00 0.00 91 1013.2
20260905110822 76 170 0.0 0.0 0.00 0.00 0.00 90 1012.9
20260905105822 76 167 0.0 0.9 0.00 0.00 0.00 91 1012.9
20260905102821 75 311 0.0 0.0 0.00 0.00 0.00 95 1013.4
20260905101820 75 271 0.0 0.0 0.00 0.00 0.00 95 1013.2
20260905100821 75 271 0.0 0.0 0.00 0.00 0.00 95 1013.0
20260905095849 75 271 0.0 0.0 0.00 0.00 0.00 95 1013.0
20260905094819 75 271 0.0 0.0 0.00 0.00 0.00 95 1012.9
20260905093819 75 271 0.0 0.0 0.00 0.00 0.00 94 1012.9
20260905092819 75 271 0.0 0.0 0.00 0.00 0.00 94 1012.9
20260905091820 75 271 0.0 0.0 0.00 0.00 0.00 94 1012.5